#Datum;Uhrzeit;WR;Pac;DaySum;Status;WR;Pac;DaySum;Status;Pdc1;Udc;Temp;WR;Pac;DaySum;Status;Pdc1;Udc;Temp;WR;Pac;DaySum;Status;Pdc1;Udc;Temp;WR;Pac;DaySum;Status;Pdc1;Pdc2;Udc1;Udc2;Temp;WR;Pac;DaySum;Status;Pdc1;Pdc2;Udc1;Udc2;Temp;WR;Pac;DaySum;Status;Pdc1;Udc;Temp;WR;Pac;DaySum;Status;Pdc1;Udc;Temp;WR;Pac;DaySum;Status;Pdc1;Udc;Temp
21.12.17;23:55:00;1;299;11950;0;2;0;1027;0;0;0;0;3;0;525;0;0;0;0;4;0;690;0;0;0;0;5;0;2370;0;0;0;0;0;0;6;0;1111;0;0;0;0;0;0;7;0;896;0;0;0;0;8;0;903;0;0;0;0;9;0;359;0;0;0;0
21.12.17;23:50:00;1;454;11925;0;2;0;1027;0;0;0;0;3;0;525;0;0;0;0;4;0;690;0;0;0;0;5;0;2370;0;0;0;0;0;0;6;0;1111;0;0;0;0;0;0;7;0;896;0;0;0;0;8;0;903;0;0;0;0;9;0;359;0;0;0;0
21.12.17;23:45:00;1;255;11874;0;2;0;1027;0;0;0;0;3;0;525;0;0;0;0;4;0;690;0;0;0;0;5;0;2370;0;0;0;0;0;0;6;0;1111;0;0;0;0;0;0;7;0;896;0;0;0;0;8;0;903;0;0;0;0;9;0;359;0;0;0;0
21.12.17;23:40:00;1;257;11852;0;2;0;1027;0;0;0;0;3;0;525;0;0;0;0;4;0;690;0;0;0;0;5;0;2370;0;0;0;0;0;0;6;0;1111;0;0;0;0;0;0;7;0;896;0;0;0;0;8;0;903;0;0;0;0;9;0;359;0;0;0;0
21.12.17;23:35:00;1;255;11831;0;2;0;1027;0;0;0;0;3;0;525;0;0;0;0;4;0;690;0;0;0;0;5;0;2370;0;0;0;0;0;0;6;0;1111;0;0;0;0;0;0;7;0;896;0;0;0;0;8;0;903;0;0;0;0;9;0;359;0;0;0;0
21.12.17;23:30:00;1;684;11809;0;2;0;1027;0;0;0;0;3;0;525;0;0;0;0;4;0;690;0;0;0;0;5;0;2370;0;0;0;0;0;0;6;0;1111;0;0;0;0;0;0;7;0;896;0;0;0;0;8;0;903;0;0;0;0;9;0;359;0;0;0;0
21.12.17;23:25:00;1;256;11759;0;2;0;1027;0;0;0;0;3;0;525;0;0;0;0;4;0;690;0;0;0;0;5;0;2370;0;0;0;0;0;0;6;0;1111;0;0;0;0;0;0;7;0;896;0;0;0;0;8;0;903;0;0;0;0;9;0;359;0;0;0;0
21.12.17;23:20:00;1;256;11738;0;2;0;1027;0;0;0;0;3;0;525;0;0;0;0;4;0;690;0;0;0;0;5;0;2370;0;0;0;0;0;0;6;0;1111;0;0;0;0;0;0;7;0;896;0;0;0;0;8;0;903;0;0;0;0;9;0;359;0;0;0;0
21.12.17;23:15:00;1;255;11717;0;2;0;1027;0;0;0;0;3;0;525;0;0;0;0;4;0;690;0;0;0;0;5;0;2370;0;0;0;0;0;0;6;0;1111;0;0;0;0;0;0;7;0;896;0;0;0;0;8;0;903;0;0;0;0;9;0;359;0;0;0;0
21.12.17;23:10:00;1;694;11695;0;2;0;1027;0;0;0;0;3;0;525;0;0;0;0;4;0;690;0;0;0;0;5;0;2370;0;0;0;0;0;0;6;0;1111;0;0;0;0;0;0;7;0;896;0;0;0;0;8;0;903;0;0;0;0;9;0;359;0;0;0;0
21.12.17;23:05:00;1;316;11643;0;2;0;1027;0;0;0;0;3;0;525;0;0;0;0;4;0;690;0;0;0;0;5;0;2370;0;0;0;0;0;0;6;0;1111;0;0;0;0;0;0;7;0;896;0;0;0;0;8;0;903;0;0;0;0;9;0;359;0;0;0;0
21.12.17;23:00:00;1;361;11615;0;2;0;1027;0;0;0;0;3;0;525;0;0;0;0;4;0;690;0;0;0;0;5;0;2370;0;0;0;0;0;0;6;0;1111;0;0;0;0;0;0;7;0;896;0;0;0;0;8;0;903;0;0;0;0;9;0;359;0;0;0;0
21.12.17;22:55:00;1;373;11585;0;2;0;1027;0;0;0;0;3;0;525;0;0;0;0;4;0;690;0;0;0;0;5;0;2370;2;0;0;0;0;0;6;0;1111;2;0;0;0;0;0;7;0;896;0;0;0;0;8;0;903;0;0;0;0;9;0;359;0;0;0;0
21.12.17;22:50:00;1;859;11556;0;2;0;1027;0;0;0;0;3;0;525;0;0;0;0;4;0;690;0;0;0;0;5;0;2370;2;0;0;0;0;0;6;0;1111;2;0;0;0;0;0;7;0;896;0;0;0;0;8;0;903;0;0;0;0;9;0;359;0;0;0;0
21.12.17;22:45:00;1;354;11500;0;2;0;1027;0;0;0;0;3;0;525;0;0;0;0;4;0;690;0;0;0;0;5;0;2370;2;0;0;0;0;0;6;0;1111;2;0;0;0;0;0;7;0;896;0;0;0;0;8;0;903;0;0;0;0;9;0;359;0;0;0;0
21.12.17;22:40:00;1;350;11470;0;2;0;1027;0;0;0;0;3;0;525;0;0;0;0;4;0;690;0;0;0;0;5;0;2370;2;0;0;0;0;0;6;0;1111;2;0;0;0;0;0;7;0;896;0;0;0;0;8;0;903;0;0;0;0;9;0;359;0;0;0;0
21.12.17;22:35:00;1;347;11441;0;2;0;1027;0;0;0;0;3;0;525;0;0;0;0;4;0;690;0;0;0;0;5;0;2370;2;0;0;0;0;0;6;0;1111;2;0;0;0;0;0;7;0;896;0;0;0;0;8;0;903;0;0;0;0;9;0;359;0;0;0;0
21.12.17;22:30:00;1;571;11412;0;2;0;1027;0;0;0;0;3;0;525;0;0;0;0;4;0;690;0;0;0;0;5;0;2370;2;0;0;0;0;0;6;0;1111;2;0;0;0;0;0;7;0;896;0;0;0;0;8;0;903;0;0;0;0;9;0;359;0;0;0;0
21.12.17;22:25:00;1;323;11351;0;2;0;1027;0;0;0;0;3;0;525;0;0;0;0;4;0;690;0;0;0;0;5;0;2370;2;0;0;0;0;0;6;0;1111;2;0;0;0;0;0;7;0;896;0;0;0;0;8;0;903;0;0;0;0;9;0;359;0;0;0;0
21.12.17;22:20:00;1;476;11325;0;2;0;1027;0;0;0;0;3;0;525;0;0;0;0;4;0;690;0;0;0;0;5;0;2370;2;0;0;0;0;0;6;0;1111;2;0;0;0;0;0;7;0;896;0;0;0;0;8;0;903;0;0;0;0;9;0;359;0;0;0;0
21.12.17;22:15:00;1;448;11284;0;2;0;1027;0;0;0;0;3;0;525;0;0;0;0;4;0;690;0;0;0;0;5;0;2370;2;0;0;0;0;0;6;0;1111;2;0;0;0;0;0;7;0;896;0;0;0;0;8;0;903;0;0;0;0;9;0;359;0;0;0;0
21.12.17;22:10:00;1;481;11247;0;2;0;1027;0;0;0;0;3;0;525;0;0;0;0;4;0;690;0;0;0;0;5;0;2370;2;0;0;0;0;0;6;0;1111;2;0;0;0;0;0;7;0;896;0;0;0;0;8;0;903;0;0;0;0;9;0;359;0;0;0;0
21.12.17;22:05:00;1;755;11189;0;2;0;1027;0;0;0;0;3;0;525;0;0;0;0;4;0;690;0;0;0;0;5;0;2370;2;0;0;0;0;0;6;0;1111;2;0;0;0;0;0;7;0;896;0;0;0;0;8;0;903;0;0;0;0;9;0;359;0;0;0;0
21.12.17;22:00:00;1;556;11131;0;2;0;1027;0;0;0;0;3;0;525;0;0;0;0;4;0;690;0;0;0;0;5;0;2370;2;0;0;0;0;0;6;0;1111;2;0;0;0;0;0;7;0;896;0;0;0;0;8;0;903;0;0;0;0;9;0;359;0;0;0;0
21.12.17;21:55:00;1;488;11085;0;2;0;1027;0;0;0;0;3;0;525;0;0;0;0;4;0;690;0;0;0;0;5;0;2370;2;0;0;0;0;0;6;0;1111;2;0;0;0;0;0;7;0;896;0;0;0;0;8;0;903;0;0;0;0;9;0;359;0;0;0;0
21.12.17;21:50:00;1;476;11044;0;2;0;1027;0;0;0;0;3;0;525;0;0;0;0;4;0;690;0;0;0;0;5;0;2370;2;0;0;0;0;0;6;0;1111;2;0;0;0;0;0;7;0;896;0;0;0;0;8;0;903;0;0;0;0;9;0;359;0;0;0;0
21.12.17;21:45:00;1;964;11004;0;2;0;1027;0;0;0;0;3;0;525;0;0;0;0;4;0;690;0;0;0;0;5;0;2370;2;0;0;0;0;0;6;0;1111;2;0;0;0;0;0;7;0;896;0;0;0;0;8;0;903;0;0;0;0;9;0;359;0;0;0;0
21.12.17;21:40:00;1;462;10936;0;2;0;1027;0;0;0;0;3;0;525;0;0;0;0;4;0;690;0;0;0;0;5;0;2370;2;0;0;0;0;0;6;0;1111;2;0;0;0;0;0;7;0;896;0;0;0;0;8;0;903;0;0;0;0;9;0;359;0;0;0;0
21.12.17;21:35:00;1;454;10898;0;2;0;1027;0;0;0;0;3;0;525;0;0;0;0;4;0;690;0;0;0;0;5;0;2370;2;0;0;0;0;0;6;0;1111;2;0;0;0;0;0;7;0;896;0;0;0;0;8;0;903;0;0;0;0;9;0;359;0;0;0;0
21.12.17;21:30:00;1;464;10860;0;2;0;1027;0;0;0;0;3;0;525;0;0;0;0;4;0;690;0;0;0;0;5;0;2370;2;0;0;0;0;0;6;0;1111;2;0;0;0;0;0;7;0;896;0;0;0;0;8;0;903;0;0;0;0;9;0;359;0;0;0;0
21.12.17;21:25:00;1;866;10821;0;2;0;1027;0;0;0;0;3;0;525;0;0;0;0;4;0;690;0;0;0;0;5;0;2370;2;0;0;0;0;0;6;0;1111;2;0;0;0;0;0;7;0;896;0;0;0;0;8;0;903;0;0;0;0;9;0;359;0;0;0;0
21.12.17;21:20:00;1;464;10752;0;2;0;1027;0;0;0;0;3;0;525;0;0;0;0;4;0;690;0;0;0;0;5;0;2370;2;0;0;0;0;0;6;0;1111;2;0;0;0;0;0;7;0;896;0;0;0;0;8;0;903;0;0;0;0;9;0;359;0;0;0;0
21.12.17;21:15:00;1;554;10714;0;2;0;1027;0;0;0;0;3;0;525;0;0;0;0;4;0;690;0;0;0;0;5;0;2370;2;0;0;0;0;0;6;0;1111;2;0;0;0;0;0;7;0;896;0;0;0;0;8;0;903;0;0;0;0;9;0;359;0;0;0;0
21.12.17;21:10:00;1;571;10667;0;2;0;1027;0;0;0;0;3;0;525;0;0;0;0;4;0;690;0;0;0;0;5;0;2370;2;0;0;0;0;0;6;0;1111;2;0;0;0;0;0;7;0;896;0;0;0;0;8;0;903;0;0;0;0;9;0;359;0;0;0;0
21.12.17;21:05:00;1;766;10619;0;2;0;1027;0;0;0;0;3;0;525;0;0;0;0;4;0;690;0;0;0;0;5;0;2370;2;0;0;0;0;0;6;0;1111;2;0;0;0;0;0;7;0;896;0;0;0;0;8;0;903;0;0;0;0;9;0;359;0;0;0;0
21.12.17;21:00:00;1;529;10542;0;2;0;1027;0;0;0;0;3;0;525;0;0;0;0;4;0;690;0;0;0;0;5;0;2370;2;0;0;0;0;0;6;0;1111;2;0;0;0;0;0;7;0;896;0;0;0;0;8;0;903;0;0;0;0;9;0;359;0;0;0;0
21.12.17;20:55:00;1;533;10498;0;2;0;1027;0;0;0;0;3;0;525;0;0;0;0;4;0;690;0;0;0;0;5;0;2370;2;0;0;0;0;0;6;0;1111;2;0;0;0;0;0;7;0;896;0;0;0;0;8;0;903;0;0;0;0;9;0;359;0;0;0;0
21.12.17;20:50:00;1;436;10453;0;2;0;1027;0;0;0;0;3;0;525;0;0;0;0;4;0;690;0;0;0;0;5;0;2370;2;0;0;0;0;0;6;0;1111;2;0;0;0;0;0;7;0;896;0;0;0;0;8;0;903;0;0;0;0;9;0;359;0;0;0;0
21.12.17;20:45:00;1;624;10417;0;2;0;1027;0;0;0;0;3;0;525;0;0;0;0;4;0;690;0;0;0;0;5;0;2370;2;0;0;0;0;0;6;0;1111;2;0;0;0;0;0;7;0;896;0;0;0;0;8;0;903;0;0;0;0;9;0;359;0;0;0;0
21.12.17;20:40:00;1;2646;10352;0;2;0;1027;0;0;0;0;3;0;525;0;0;0;0;4;0;690;0;0;0;0;5;0;2370;2;0;0;0;0;0;6;0;1111;2;0;0;0;0;0;7;0;896;0;0;0;0;8;0;903;0;0;0;0;9;0;359;0;0;0;0
21.12.17;20:35:00;1;433;10105;0;2;0;1027;0;0;0;0;3;0;525;0;0;0;0;4;0;690;0;0;0;0;5;0;2370;2;0;0;0;0;0;6;0;1111;2;0;0;0;0;0;7;0;896;0;0;0;0;8;0;903;0;0;0;0;9;0;359;0;0;0;0
21.12.17;20:30:00;1;421;10070;0;2;0;1027;0;0;0;0;3;0;525;0;0;0;0;4;0;690;0;0;0;0;5;0;2370;2;0;0;0;0;0;6;0;1111;2;0;0;0;0;0;7;0;896;0;0;0;0;8;0;903;0;0;0;0;9;0;359;0;0;0;0
21.12.17;20:25:00;1;467;10034;0;2;0;1027;0;0;0;0;3;0;525;0;0;0;0;4;0;690;0;0;0;0;5;0;2370;2;0;0;0;0;0;6;0;1111;2;0;0;0;0;0;7;0;896;0;0;0;0;8;0;903;0;0;0;0;9;0;359;0;0;0;0
21.12.17;20:20:00;1;662;9978;0;2;0;1027;0;0;0;0;3;0;525;0;0;0;0;4;0;690;0;0;0;0;5;0;2370;2;0;0;0;0;0;6;0;1111;2;0;0;0;0;0;7;0;896;0;0;0;0;8;0;903;0;0;0;0;9;0;359;0;0;0;0
21.12.17;20:15:00;1;482;9930;0;2;0;1027;0;0;0;0;3;0;525;0;0;0;0;4;0;690;0;0;0;0;5;0;2370;2;0;0;0;0;0;6;0;1111;2;0;0;0;0;0;7;0;896;0;0;0;0;8;0;903;0;0;0;0;9;0;359;0;0;0;0
21.12.17;20:10:00;1;494;9889;0;2;0;1027;0;0;0;0;3;0;525;0;0;0;0;4;0;690;0;0;0;0;5;0;2370;2;0;0;0;0;0;6;0;1111;2;0;0;0;0;0;7;0;896;0;0;0;0;8;0;903;0;0;0;0;9;0;359;0;0;0;0
21.12.17;20:05:00;1;413;9848;0;2;0;1027;0;0;0;0;3;0;525;0;0;0;0;4;0;690;0;0;0;0;5;0;2370;2;0;0;0;0;0;6;0;1111;2;0;0;0;0;0;7;0;896;0;0;0;0;8;0;903;0;0;0;0;9;0;359;0;0;0;0
21.12.17;20:00:00;1;519;9815;0;2;0;1027;0;0;0;0;3;0;525;0;0;0;0;4;0;690;0;0;0;0;5;0;2370;2;0;0;0;0;0;6;0;1111;2;0;0;0;0;0;7;0;896;0;0;0;0;8;0;903;0;0;0;0;9;0;359;0;0;0;0
21.12.17;19:55:00;1;349;9756;0;2;0;1027;0;0;0;0;3;0;525;0;0;0;0;4;0;690;0;0;0;0;5;0;2370;2;0;0;0;0;0;6;0;1111;2;0;0;0;0;0;7;0;896;0;0;0;0;8;0;903;0;0;0;0;9;0;359;0;0;0;0
21.12.17;19:50:00;1;317;9728;0;2;0;1027;0;0;0;0;3;0;525;0;0;0;0;4;0;690;0;0;0;0;5;0;2370;2;0;0;0;0;0;6;0;1111;2;0;0;0;0;0;7;0;896;0;0;0;0;8;0;903;0;0;0;0;9;0;359;0;0;0;0
21.12.17;19:45:00;1;316;9701;0;2;0;1027;0;0;0;0;3;0;525;0;0;0;0;4;0;690;0;0;0;0;5;0;2370;2;0;0;0;0;0;6;0;1111;2;0;0;0;0;0;7;0;896;0;0;0;0;8;0;903;0;0;0;0;9;0;359;0;0;0;0
21.12.17;19:40:00;1;668;9675;0;2;0;1027;0;0;0;0;3;0;525;0;0;0;0;4;0;690;0;0;0;0;5;0;2370;2;0;0;0;0;0;6;0;1111;2;0;0;0;0;0;7;0;896;0;0;0;0;8;0;903;0;0;0;0;9;0;359;0;0;0;0
21.12.17;19:35:00;1;302;9619;0;2;0;1027;0;0;0;0;3;0;525;0;0;0;0;4;0;690;0;0;0;0;5;0;2370;2;0;0;0;0;0;6;0;1111;2;0;0;0;0;0;7;0;896;0;0;0;0;8;0;903;0;0;0;0;9;0;359;0;0;0;0
21.12.17;19:30:00;1;301;9594;0;2;0;1027;0;0;0;0;3;0;525;0;0;0;0;4;0;690;0;0;0;0;5;0;2370;2;0;0;0;0;0;6;0;1111;2;0;0;0;0;0;7;0;896;0;0;0;0;8;0;903;0;0;0;0;9;0;359;0;0;0;0
21.12.17;19:25:00;1;340;9569;0;2;0;1027;0;0;0;0;3;0;525;0;0;0;0;4;0;690;0;0;0;0;5;0;2370;2;0;0;0;0;0;6;0;1111;2;0;0;0;0;0;7;0;896;0;0;0;0;8;0;903;0;0;0;0;9;0;359;0;0;0;0
21.12.17;19:20:00;1;744;9540;0;2;0;1027;0;0;0;0;3;0;525;0;0;0;0;4;0;690;0;0;0;0;5;0;2370;2;0;0;0;0;0;6;0;1111;2;0;0;0;0;0;7;0;896;0;0;0;0;8;0;903;0;0;0;0;9;0;359;0;0;0;0
21.12.17;19:15:00;1;391;9480;0;2;0;1027;0;0;0;0;3;0;525;0;0;0;0;4;0;690;0;0;0;0;5;0;2370;2;0;0;0;0;0;6;0;1111;2;0;0;0;0;0;7;0;896;0;0;0;0;8;0;903;0;0;0;0;9;0;359;0;0;0;0
21.12.17;19:10:00;1;402;9446;0;2;0;1027;0;0;0;0;3;0;525;0;0;0;0;4;0;690;0;0;0;0;5;0;2370;2;0;0;0;0;0;6;0;1111;2;0;0;0;0;0;7;0;896;0;0;0;0;8;0;903;0;0;0;0;9;0;359;0;0;0;0
21.12.17;19:05:00;1;406;9413;0;2;0;1027;0;0;0;0;3;0;525;0;0;0;0;4;0;690;0;0;0;0;5;0;2370;2;0;0;0;0;0;6;0;1111;2;0;0;0;0;0;7;0;896;0;0;0;0;8;0;903;0;0;0;0;9;0;359;0;0;0;0
21.12.17;19:00:00;1;929;9379;0;2;0;1027;0;0;0;0;3;0;525;0;0;0;0;4;0;690;0;0;0;0;5;0;2370;2;0;0;0;0;0;6;0;1111;2;0;0;0;0;0;7;0;896;0;0;0;0;8;0;903;0;0;0;0;9;0;359;0;0;0;0
21.12.17;18:55:00;1;409;9315;0;2;0;1027;0;0;0;0;3;0;525;0;0;0;0;4;0;690;0;0;0;0;5;0;2370;2;0;0;0;0;0;6;0;1111;2;0;0;0;0;0;7;0;896;0;0;0;0;8;0;903;0;0;0;0;9;0;359;0;0;0;0
21.12.17;18:50:00;1;417;9280;0;2;0;1027;0;0;0;0;3;0;525;0;0;0;0;4;0;690;0;0;0;0;5;0;2370;2;0;0;0;0;0;6;0;1111;2;0;0;0;0;0;7;0;896;0;0;0;0;8;0;903;0;0;0;0;9;0;359;0;0;0;0
21.12.17;18:45:00;1;410;9246;0;2;0;1027;0;0;0;0;3;0;525;0;0;0;0;4;0;690;0;0;0;0;5;0;2370;2;0;0;0;0;0;6;0;1111;2;0;0;0;0;0;7;0;896;0;0;0;0;8;0;903;0;0;0;0;9;0;359;0;0;0;0
21.12.17;18:40:00;1;613;9211;0;2;0;1027;0;0;0;0;3;0;525;0;0;0;0;4;0;690;0;0;0;0;5;0;2370;2;0;0;0;0;0;6;0;1111;2;0;0;0;0;0;7;0;896;0;0;0;0;8;0;903;0;0;0;0;9;0;359;0;0;0;0
21.12.17;18:35:00;1;538;9154;0;2;0;1027;0;0;0;0;3;0;525;0;0;0;0;4;0;690;0;0;0;0;5;0;2370;2;0;0;0;0;0;6;0;1111;2;0;0;0;0;0;7;0;896;0;0;0;0;8;0;903;0;0;0;0;9;0;359;0;0;0;0
21.12.17;18:30:00;1;364;9119;0;2;0;1027;0;0;0;0;3;0;525;0;0;0;0;4;0;690;0;0;0;0;5;0;2370;2;0;0;0;0;0;6;0;1111;2;0;0;0;0;0;7;0;896;0;0;0;0;8;0;903;0;0;0;0;9;0;359;0;0;0;0
21.12.17;18:25:00;1;367;9088;0;2;0;1027;0;0;0;0;3;0;525;0;0;0;0;4;0;690;0;0;0;0;5;0;2370;2;0;0;0;0;0;6;0;1111;2;0;0;0;0;0;7;0;896;0;0;0;0;8;0;903;0;0;0;0;9;0;359;0;0;0;0
21.12.17;18:20:00;1;369;9057;0;2;0;1027;0;0;0;0;3;0;525;0;0;0;0;4;0;690;0;0;0;0;5;0;2370;2;0;0;0;0;0;6;0;1111;2;0;0;0;0;0;7;0;896;0;0;0;0;8;0;903;0;0;0;0;9;0;359;0;0;0;0
21.12.17;18:15:00;1;801;9027;0;2;0;1027;0;0;0;0;3;0;525;0;0;0;0;4;0;690;0;0;0;0;5;0;2370;2;0;0;0;0;0;6;0;1111;2;0;0;0;0;0;7;0;896;0;0;0;0;8;0;903;0;0;0;0;9;0;359;0;0;0;0
21.12.17;18:10:00;1;327;8970;0;2;0;1027;0;0;0;0;3;0;525;0;0;0;0;4;0;690;0;0;0;0;5;0;2370;2;0;0;0;0;0;6;0;1111;2;0;0;0;0;0;7;0;896;0;0;0;0;8;0;903;0;0;0;0;9;0;359;0;0;0;0
21.12.17;18:05:00;1;365;8942;0;2;0;1027;0;0;0;0;3;0;525;0;0;0;0;4;0;690;0;0;0;0;5;0;2370;2;0;0;0;0;0;6;0;1111;2;0;0;0;0;0;7;0;896;0;0;0;0;8;0;903;0;0;0;0;9;0;359;0;0;0;0
21.12.17;18:00:00;1;462;8910;0;2;0;1027;0;0;0;0;3;0;525;0;0;0;0;4;0;690;0;0;0;0;5;0;2370;2;0;0;0;0;0;6;0;1111;2;0;0;0;0;0;7;0;896;0;0;0;0;8;0;903;0;0;0;0;9;0;359;0;0;0;0
21.12.17;17:55:00;1;2110;8825;0;2;0;1027;0;0;0;0;3;0;525;0;0;0;0;4;0;690;0;0;0;0;5;0;2370;2;0;0;0;0;0;6;0;1111;2;0;0;0;0;0;7;0;896;0;0;0;0;8;0;903;0;0;0;0;9;0;359;0;0;0;0
21.12.17;17:50:00;1;1622;8660;0;2;0;1027;0;0;0;0;3;0;525;0;0;0;0;4;0;690;0;0;0;0;5;0;2370;2;0;0;0;0;0;6;0;1111;2;0;0;0;0;0;7;0;896;0;0;0;0;8;0;903;0;0;0;0;9;0;359;0;0;0;0
21.12.17;17:45:00;1;1680;8545;0;2;0;1027;0;0;0;0;3;0;525;0;0;0;0;4;0;690;0;0;0;0;5;0;2370;2;0;0;0;0;0;6;0;1111;2;0;0;0;0;0;7;0;896;0;0;0;0;8;0;903;0;0;0;0;9;0;359;0;0;0;0
21.12.17;17:40:00;1;1539;8420;0;2;0;1027;0;0;0;0;3;0;525;0;0;0;0;4;0;690;0;0;0;0;5;0;2370;2;0;0;0;0;0;6;0;1111;2;0;0;0;0;0;7;0;896;0;0;0;0;8;0;903;0;0;0;0;9;0;359;0;0;0;0
21.12.17;17:35:00;1;1568;8293;0;2;0;1027;0;0;0;0;3;0;525;0;0;0;0;4;0;690;0;0;0;0;5;0;2370;2;0;0;0;0;0;6;0;1111;2;0;0;0;0;0;7;0;896;0;0;0;0;8;0;903;0;0;0;0;9;0;359;0;0;0;0
21.12.17;17:30:00;1;1316;8158;0;2;0;1027;0;0;0;0;3;0;525;0;0;0;0;4;0;690;0;0;0;0;5;0;2370;2;0;0;0;0;0;6;0;1111;2;0;0;0;0;0;7;0;896;0;0;0;0;8;0;903;0;0;0;0;9;0;359;0;0;0;0
21.12.17;17:25:00;1;365;8039;0;2;0;1027;0;0;0;0;3;0;525;0;0;0;0;4;0;690;0;0;0;0;5;0;2370;2;0;0;0;0;0;6;0;1111;2;0;0;0;0;0;7;0;896;0;0;0;0;8;0;903;0;0;0;0;9;0;359;0;0;0;0
21.12.17;17:20:00;1;394;8008;0;2;0;1027;0;0;0;0;3;0;525;0;0;0;0;4;0;690;0;0;0;0;5;0;2370;2;0;0;0;0;0;6;0;1111;2;0;0;0;0;0;7;0;896;0;0;0;0;8;0;903;0;0;0;0;9;0;359;0;0;0;0
21.12.17;17:15:00;1;396;7976;0;2;0;1027;0;0;0;0;3;0;525;0;0;0;0;4;0;690;0;0;0;0;5;0;2370;2;0;0;0;0;0;6;0;1111;2;0;0;0;0;0;7;0;896;0;0;0;0;8;0;903;0;0;0;0;9;0;359;0;0;0;0
21.12.17;17:10:00;1;1229;7943;0;2;0;1027;0;0;0;0;3;0;525;0;0;0;0;4;0;690;0;0;0;0;5;0;2370;2;0;0;0;0;0;6;0;1111;2;0;0;0;0;0;7;0;896;0;0;0;0;8;0;903;0;0;0;0;9;0;359;0;0;0;0
21.12.17;17:05:00;1;395;7878;0;2;0;1027;0;0;0;0;3;0;525;0;0;0;0;4;0;690;0;0;0;0;5;0;2370;2;0;0;0;0;0;6;0;1111;2;0;0;0;0;0;7;0;896;0;0;0;0;8;0;903;0;0;0;0;9;0;359;0;0;0;0
21.12.17;17:00:00;1;365;7845;0;2;0;1027;0;0;0;0;3;0;525;0;0;0;0;4;0;690;0;0;0;0;5;0;2370;2;0;0;0;0;0;6;0;1111;2;0;0;0;0;0;7;0;896;0;0;0;0;8;0;903;0;0;0;0;9;0;359;0;0;0;0
21.12.17;16:55:00;1;319;7815;0;2;0;1027;0;0;0;0;3;0;525;0;0;0;0;4;0;690;0;0;0;0;5;0;2370;2;0;0;0;0;0;6;0;1111;2;0;0;0;0;0;7;0;896;0;0;0;0;8;0;903;0;0;0;0;9;0;359;0;0;0;0
21.12.17;16:50:00;1;328;7788;0;2;0;1027;0;0;0;0;3;0;525;0;0;0;0;4;0;690;0;0;0;0;5;0;2370;2;0;0;0;0;0;6;0;1111;2;0;0;0;0;0;7;0;896;0;0;0;0;8;0;903;0;0;0;0;9;0;359;0;0;0;0
21.12.17;16:45:00;1;514;7745;0;2;0;1027;0;0;0;0;3;0;525;0;0;0;0;4;0;690;0;0;0;0;5;0;2370;2;0;0;0;0;0;6;0;1111;2;0;0;0;0;0;7;0;896;0;0;0;0;8;0;903;0;0;0;0;9;0;359;0;0;0;0
21.12.17;16:40:00;1;322;7706;0;2;0;1027;0;0;0;0;3;0;525;0;0;0;0;4;0;690;0;0;0;0;5;0;2370;2;0;0;0;0;0;6;0;1111;2;0;0;0;0;0;7;0;896;0;0;0;0;8;0;903;0;0;0;0;9;0;359;0;0;0;0
21.12.17;16:35:00;1;255;7679;0;2;0;1027;0;0;0;0;3;0;525;0;0;0;0;4;0;690;0;0;0;0;5;0;2370;2;0;0;0;0;0;6;0;1111;2;0;0;0;0;0;7;0;896;0;0;0;0;8;0;903;0;0;0;0;9;0;359;0;0;0;0
21.12.17;16:30:00;1;253;7658;0;2;0;1027;0;0;0;0;3;0;525;0;0;0;0;4;0;690;0;0;0;0;5;0;2370;2;0;0;0;0;0;6;0;1111;2;0;0;0;0;0;7;0;896;0;0;0;0;8;0;903;0;0;0;0;9;0;359;0;0;0;0
21.12.17;16:25:00;1;436;7637;0;2;0;1027;0;0;0;0;3;0;525;0;0;73;3;4;0;690;0;0;0;0;5;0;2370;2;0;0;0;0;0;6;0;1111;2;0;0;0;0;0;7;0;896;0;0;0;0;8;0;903;0;0;0;0;9;0;359;0;0;0;0
21.12.17;16:20:00;1;283;7587;0;2;0;1027;0;0;221;6;3;0;525;6;0;289;11;4;0;690;0;0;0;0;5;0;2370;2;0;0;0;0;0;6;0;1111;2;0;0;0;0;0;7;0;896;0;0;0;0;8;0;903;0;0;0;0;9;0;359;0;0;0;0
21.12.17;16:15:00;1;220;7563;0;2;0;1027;6;0;287;8;3;0;525;6;0;316;11;4;0;690;0;0;59;5;5;0;2370;2;0;0;0;0;0;6;0;1111;2;0;0;0;0;0;7;0;896;0;0;0;0;8;0;903;0;0;0;0;9;0;359;0;0;0;0
21.12.17;16:10:00;1;192;7545;0;2;0;1027;6;0;319;8;3;0;525;6;0;382;11;4;0;690;1;0;99;6;5;0;2370;2;0;1;116;115;6;6;0;1111;1;1;1;59;90;7;7;0;896;0;0;0;0;8;0;903;0;0;0;0;9;0;359;0;0;41;1
21.12.17;16:05:00;1;195;7529;0;2;0;1027;6;0;353;8;3;0;525;3;0;411;11;4;0;690;1;0;137;6;5;0;2370;26;0;0;357;360;18;6;0;1111;23;6;5;180;478;17;7;0;896;0;0;218;8;8;0;903;0;0;222;8;9;0;359;6;0;289;7
21.12.17;16:00:00;1;679;7513;0;2;0;1027;6;0;373;8;3;0;525;6;1;450;11;4;0;690;1;0;168;6;5;0;2370;23;0;4;403;437;18;6;0;1111;23;4;4;181;538;17;7;0;896;6;0;321;11;8;0;903;6;0;328;10;9;0;359;6;0;345;7
21.12.17;15:55:00;1;194;7467;0;2;0;1027;6;0;383;8;3;1;525;6;2;459;11;4;0;690;1;0;186;7;5;0;2370;26;0;1;417;615;18;6;0;1111;23;0;9;578;180;18;7;0;896;6;0;354;11;8;0;903;6;0;361;10;9;0;359;6;0;383;7
21.12.17;15:50:00;1;193;7451;0;2;0;1027;6;0;392;8;3;0;525;6;3;473;11;4;0;690;1;0;204;7;5;6;2369;4;0;2;414;648;19;6;0;1111;23;4;4;182;566;18;7;0;896;6;0;391;11;8;0;903;6;0;398;10;9;0;359;6;0;411;7
21.12.17;15:45:00;1;210;7435;0;2;0;1027;6;0;397;8;3;0;525;6;2;476;11;4;0;690;1;0;213;7;5;8;2369;4;1;2;415;651;19;6;0;1111;1;4;7;413;575;18;7;0;896;6;0;397;11;8;0;903;6;0;403;11;9;0;359;6;1;412;7
21.12.17;15:40:00;1;296;7417;0;2;0;1027;6;0;404;8;3;1;525;6;3;492;11;4;0;690;1;0;215;7;5;9;2368;4;2;2;420;667;19;6;0;1111;23;2;5;483;582;18;7;0;896;6;0;418;11;8;0;903;6;0;422;11;9;0;359;6;0;455;7
21.12.17;15:35:00;1;603;7392;0;2;1;1027;6;5;401;9;3;1;524;4;3;495;11;4;0;690;3;0;213;8;5;71;2367;4;20;20;383;610;20;6;0;1111;23;0;13;612;590;19;7;0;896;6;4;417;11;8;0;903;6;1;440;11;9;1;359;6;1;476;7
21.12.17;15:30:00;1;400;7336;0;2;4;1027;6;11;399;9;3;4;524;3;9;488;11;4;0;690;3;0;213;8;5;84;2361;4;26;25;383;611;20;6;37;1111;1;7;24;500;478;20;7;1;896;6;1;452;11;8;1;903;6;1;457;11;9;2;359;6;3;476;7
21.12.17;15:25:00;1;402;7302;0;2;3;1026;6;7;408;9;3;0;524;6;6;509;11;4;0;690;3;0;227;8;5;95;2354;4;31;29;383;610;20;6;47;1108;4;10;41;491;455;19;7;0;896;6;0;479;11;8;1;903;4;3;458;11;9;0;359;6;0;532;7
21.12.17;15:20:00;1;402;7268;0;2;2;1026;6;7;414;9;3;1;524;6;5;519;12;4;0;690;3;0;216;8;5;104;2346;4;40;32;383;610;20;6;18;1105;1;8;14;565;472;20;7;1;896;3;7;445;12;8;1;902;3;8;447;11;9;4;359;4;5;493;7
21.12.17;15:15:00;1;402;7235;0;2;5;1026;4;10;415;9;3;1;524;6;8;511;12;4;0;690;3;0;210;8;5;118;2337;4;49;39;383;610;20;6;56;1103;4;20;19;446;213;20;7;0;896;6;5;451;12;8;1;902;6;5;469;11;9;0;358;6;4;520;7
21.12.17;15:10:00;1;637;7201;0;2;15;1025;6;23;407;9;3;1;524;6;6;529;12;4;5;690;3;5;200;8;5;141;2327;4;59;43;383;611;20;6;62;1098;4;25;20;446;213;20;7;2;896;6;6;482;12;8;2;902;6;7;484;12;9;1;358;6;8;506;7
21.12.17;15:05:00;1;402;7138;0;2;63;1024;4;86;358;10;3;0;523;6;0;564;12;4;18;689;3;18;198;8;5;180;2315;4;80;68;383;610;20;6;84;1092;4;60;49;446;213;20;7;25;895;6;41;418;12;8;27;902;6;52;389;12;9;4;358;6;7;542;7
21.12.17;15:00:00;1;462;7104;0;2;70;1019;4;94;363;10;3;10;523;3;22;521;12;4;17;688;3;18;198;8;5;194;2300;4;90;75;383;610;20;6;92;1085;4;67;50;446;213;20;7;47;893;4;74;357;12;8;45;900;4;74;356;12;9;4;358;6;7;536;7
21.12.17;14:55:00;1;466;7066;0;2;68;1013;4;92;365;10;3;6;522;6;13;536;12;4;20;687;3;21;198;8;5;184;2284;4;86;72;383;611;20;6;89;1078;4;37;29;446;214;20;7;46;889;4;74;356;12;8;46;896;4;74;356;12;9;0;357;6;0;575;7
21.12.17;14:50:00;1;473;7027;0;2;78;1008;4;104;370;10;3;6;522;6;12;547;12;4;36;685;3;37;198;8;5;208;2268;4;102;81;383;611;20;6;96;1070;4;38;26;446;213;20;7;56;886;4;78;357;12;8;55;892;4;80;357;12;9;10;357;4;16;527;7
21.12.17;14:45:00;1;510;6987;0;2;76;1001;4;104;365;10;3;14;522;6;27;508;12;4;31;682;3;33;198;8;5;208;2251;4;100;77;383;611;20;6;95;1062;4;59;44;446;213;20;7;54;881;4;79;359;12;8;56;888;4;80;358;12;9;6;356;3;10;550;7
21.12.17;14:40:00;1;985;6944;0;2;77;995;4;103;372;10;3;6;521;6;11;546;12;4;32;679;3;33;198;8;5;206;2234;4;100;81;383;611;20;6;100;1053;4;54;39;446;213;20;7;57;877;4;78;354;12;8;57;883;4;78;358;12;9;8;356;6;16;527;7
21.12.17;14:35:00;1;495;6872;0;2;75;988;4;100;367;10;3;0;520;6;0;570;12;4;25;677;3;25;198;8;5;201;2217;4;94;71;383;611;20;6;92;1045;4;56;40;446;213;20;7;48;872;4;75;355;12;8;52;878;4;73;368;12;9;5;355;6;9;548;8
21.12.17;14:30:00;1;483;6830;0;2;82;982;4;108;362;10;3;14;520;3;24;524;12;4;36;674;3;37;198;8;5;211;2200;4;105;88;383;611;20;6;105;1037;4;51;38;446;213;20;7;54;868;4;81;362;12;8;51;874;4;91;440;12;9;6;355;6;8;556;8
21.12.17;14:25:00;1;491;6789;0;2;95;975;4;120;374;10;3;20;519;6;33;520;12;4;47;671;3;49;198;8;5;239;2182;4;119;102;383;611;20;6;115;1029;4;77;52;446;213;20;7;76;863;4;103;421;12;8;47;869;4;91;476;12;9;0;354;6;0;585;8
21.12.17;14:20:00;1;400;6749;0;2;98;967;4;123;373;10;3;8;517;6;13;553;12;4;52;668;3;54;198;8;5;246;2162;4;117;105;383;611;20;6;117;1019;4;72;49;446;213;20;7;70;857;4;104;431;12;8;64;865;4;101;447;12;9;12;354;4;19;529;8
21.12.17;14:15:00;1;400;6716;0;2;96;959;4;120;367;10;3;9;516;6;16;548;12;4;47;663;3;48;198;8;5;236;2142;4;116;97;383;611;20;6;117;1009;4;86;56;445;213;20;7;77;851;4;104;439;12;8;76;860;4;109;437;12;9;16;353;3;24;527;8
21.12.17;14:10:00;1;872;6682;0;2;93;951;4;118;373;10;3;7;516;6;13;552;12;4;46;659;3;48;198;8;5;232;2122;4;116;98;383;611;20;6;116;1000;4;63;42;445;213;20;7;68;844;4;101;409;12;8;75;854;4;101;425;12;9;7;351;6;10;560;8
21.12.17;14:05:00;1;401;6620;0;2;91;943;4;115;366;10;3;9;515;6;16;546;12;4;41;655;3;41;198;8;5;226;2102;4;112;95;383;611;20;6;109;990;4;62;42;445;213;20;7;76;839;4;98;411;12;8;71;847;4;99;419;12;9;9;351;6;12;555;8
21.12.17;14:00:00;1;402;6586;0;2;97;935;4;122;373;10;3;0;515;6;0;577;13;4;46;652;3;48;198;8;5;245;2083;4;118;102;383;611;20;6;113;981;4;73;50;445;214;20;7;73;833;4;103;425;12;8;73;841;4;105;425;12;9;6;350;6;10;560;8
21.12.17;13:55:00;1;402;6553;0;2;110;927;4;138;364;10;3;60;515;4;92;431;13;4;63;648;3;66;198;8;5;275;2063;4;128;113;383;611;20;6;125;972;4;70;46;446;213;20;7;88;827;4;124;435;12;8;91;835;4;125;445;12;9;8;350;6;14;560;8
21.12.17;13:50:00;1;445;6519;0;2;136;918;4;164;389;10;3;78;510;4;113;478;13;4;85;643;3;89;208;8;5;319;2040;4;157;131;383;611;20;6;144;961;4;90;53;446;213;20;7;119;819;4;141;420;12;8;108;828;4;143;443;12;9;8;349;6;10;564;8
21.12.17;13:45:00;1;448;6482;0;2;166;907;4;197;387;10;3;95;503;4;134;496;13;4;115;636;5;120;229;8;5;383;2014;4;193;160;397;611;20;6;168;948;4;95;51;446;213;20;7;150;810;4;176;435;12;8;146;819;4;180;443;12;9;79;348;4;103;489;8
21.12.17;13:40:00;1;444;6445;0;2;205;893;4;235;388;10;3;122;495;4;159;509;13;4;154;626;5;160;228;8;5;458;1982;4;223;189;403;611;20;6;205;934;4;140;81;446;213;20;7;179;797;4;214;423;12;8;185;807;4;217;443;12;9;96;342;4;124;492;8
21.12.17;13:35:00;1;628;6407;0;2;199;876;4;228;384;10;3;116;485;4;153;518;13;4;148;614;5;154;231;8;5;432;1943;4;217;186;385;611;20;6;203;916;4;153;80;446;213;20;7;181;782;4;208;457;12;8;175;791;4;211;472;12;9;98;334;4;120;476;8
21.12.17;13:30:00;1;398;6346;0;2;149;860;4;177;393;10;3;82;475;4;123;506;13;4;96;601;5;99;213;8;5;332;1909;4;171;142;383;611;20;6;157;900;4;86;51;446;213;20;7;121;767;4;153;415;12;8;125;777;4;160;452;12;9;58;326;4;76;465;8
21.12.17;13:25:00;1;396;6312;0;2;141;847;4;171;386;10;3;79;468;4;118;498;13;4;90;593;3;93;203;8;5;318;1881;4;160;132;383;611;20;6;153;887;4;92;55;446;213;20;7;104;757;4;148;443;12;8;108;766;4;145;459;12;9;24;321;6;34;539;8
21.12.17;13:20:00;1;395;6279;0;2;148;835;4;178;385;10;3;86;462;4;123;475;13;4;95;586;3;99;215;8;5;328;1855;4;164;137;383;611;20;6;152;874;4;106;63;446;213;20;7;128;749;4;155;428;12;8;130;757;4;159;436;12;9;48;319;6;61;507;8
21.12.17;13:15:00;1;398;6246;0;2;171;823;4;197;386;10;3;99;455;4;139;501;13;4;109;578;5;113;230;8;5;359;1827;4;184;160;383;611;20;6;171;861;4;108;64;446;213;20;7;136;738;4;183;472;12;8;140;746;4;181;471;12;9;86;315;4;107;467;8